Location: Unspecified
(51.5147°N, 7.4673°E)
Time: 19:45:17
(UTC+01:00)

A-11 Canister half - Pass Details

Date: 24 February 2026
Orbit: 1512 x 1687 km, 47.2° (Epoch: 8 March)

Event Time Altitude Azimuth Distance (km) Brightness Sun altitude
Rises 19:08:47 0° 213° (SSW) 4,923 12.2 -11.2°
Reaches altitude 10° 19:12:15 10° 205° (SSW) 3,943 11.5 -11.7°
Maximum altitude 19:21:14 38° 143° (SE) 2,392 9.7 -13.1°
Enters shadow 19:27:57 18° 88° (E) 3,352 10.1 -14.2°
Drops below altitude 10° 19:30:08 10° 81° (E) 3,916 - -14.5°
Sets 19:33:32 0° 74° (ENE) 4,887 - -15.0°
